EFW8DD EGKK-LOWS

Flight info

Callsign EFW8DD
Flight time N/A
Altitude 23000
Route DVR2P DVR L9 KONAN/N0445F350 UL607 KOK/N0450F370 UL607 SPI DCT GUBAX DCT BOREP DCT ARMUT T703 ARBAX/N0456F360 T108 OSTES T700 BADIT BADIT2R
Aircraft A320/M-SDE3FGIJ1KRWXY/S

Departure

Time 2026-05-07 10:09
Airport London Gatwick Airport (EGKK)

Arrival

Time N/A
Airport Salzburg Airport (LOWS)
Time Latitude Longitude Altitude Speed Heading
2026-05-07 09:32 51.15364 -0.16336 205 ft 0 kts 354°
2026-05-07 09:54 51.15348 -0.16333 209 ft 3 kts 353°
2026-05-07 09:54 51.15330 -0.16329 207 ft 3 kts 340°
2026-05-07 09:54 51.15315 -0.16315 217 ft 3 kts 303°
2026-05-07 09:54 51.15308 -0.16290 214 ft 0 kts 276°
2026-05-07 09:56 51.15308 -0.16291 214 ft 0 kts 276°
2026-05-07 09:57 51.15310 -0.16321 217 ft 5 kts 276°
2026-05-07 09:57 51.15306 -0.16385 205 ft 7 kts 257°
2026-05-07 09:57 51.15315 -0.16455 209 ft 7 kts 330°
2026-05-07 09:57 51.15371 -0.16488 208 ft 10 kts 346°
2026-05-07 09:58 51.15415 -0.16507 205 ft 0 kts 311°
2026-05-07 09:58 51.15415 -0.16511 216 ft 0 kts 287°
2026-05-07 09:58 51.15413 -0.16517 215 ft 2 kts 265°
2026-05-07 09:58 51.15409 -0.16570 207 ft 8 kts 262°
2026-05-07 09:59 51.15392 -0.16678 208 ft 11 kts 256°
2026-05-07 09:59 51.15371 -0.16811 213 ft 13 kts 256°
2026-05-07 09:59 51.15348 -0.16964 205 ft 15 kts 257°
2026-05-07 09:59 51.15327 -0.17138 212 ft 17 kts 261°
2026-05-07 10:00 51.15304 -0.17334 211 ft 19 kts 263°
2026-05-07 10:00 51.15283 -0.17552 208 ft 21 kts 259°
2026-05-07 10:00 51.15253 -0.17789 207 ft 23 kts 258°
2026-05-07 10:00 51.15219 -0.18045 206 ft 25 kts 258°
2026-05-07 10:01 51.15178 -0.18320 204 ft 26 kts 259°
2026-05-07 10:01 51.15143 -0.18603 209 ft 27 kts 258°
2026-05-07 10:01 51.15104 -0.18895 207 ft 27 kts 258°
2026-05-07 10:01 51.15065 -0.19190 204 ft 28 kts 257°
2026-05-07 10:02 51.15019 -0.19490 207 ft 28 kts 256°
2026-05-07 10:02 51.14974 -0.19803 210 ft 30 kts 257°
2026-05-07 10:02 51.14927 -0.20133 210 ft 31 kts 258°
2026-05-07 10:02 51.14887 -0.20448 210 ft 28 kts 259°
2026-05-07 10:03 51.14849 -0.20762 204 ft 30 kts 258°
2026-05-07 10:03 51.14801 -0.21080 204 ft 26 kts 256°
2026-05-07 10:03 51.14766 -0.21292 208 ft 21 kts 255°
2026-05-07 10:03 51.14711 -0.21402 204 ft 13 kts 185°
2026-05-07 10:04 51.14636 -0.21334 207 ft 0 kts 151°
2026-05-07 10:04 51.14631 -0.21330 207 ft 2 kts 155°
2026-05-07 10:04 51.14613 -0.21317 210 ft 3 kts 155°
2026-05-07 10:06 51.14593 -0.21302 207 ft 8 kts 155°
2026-05-07 10:07 51.14519 -0.21228 213 ft 16 kts 132°
2026-05-07 10:07 51.14519 -0.21142 203 ft 0 kts 80°
2026-05-07 10:07 51.14519 -0.21139 203 ft 0 kts 80°
2026-05-07 10:08 51.14525 -0.21086 204 ft 24 kts 80°
2026-05-07 10:08 51.14612 -0.20453 216 ft 90 kts 78°
2026-05-07 10:08 51.14783 -0.19194 205 ft 139 kts 77°
2026-05-07 10:08 51.15012 -0.17498 392 ft 161 kts 78°
2026-05-07 10:09 51.15241 -0.15819 1077 ft 153 kts 78°
2026-05-07 10:09 51.15475 -0.14141 1506 ft 161 kts 78°
2026-05-07 10:09 51.15733 -0.12282 1672 ft 182 kts 78°
2026-05-07 10:09 51.16020 -0.10213 1819 ft 201 kts 78°
2026-05-07 10:10 51.16334 -0.07939 1954 ft 220 kts 78°
2026-05-07 10:10 51.16678 -0.05430 2106 ft 244 kts 78°
2026-05-07 10:10 51.16882 -0.02685 2752 ft 255 kts 92°
2026-05-07 10:10 51.16834 0.00130 3635 ft 259 kts 92°
2026-05-07 10:11 51.16783 0.03023 4506 ft 263 kts 92°
2026-05-07 10:11 51.16727 0.06002 5381 ft 268 kts 92°
2026-05-07 10:11 51.16671 0.08957 6235 ft 272 kts 92°
2026-05-07 10:11 51.16614 0.11992 7036 ft 277 kts 92°
2026-05-07 10:12 51.16557 0.15092 7689 ft 280 kts 92°
2026-05-07 10:12 51.16525 0.18207 8482 ft 283 kts 90°
2026-05-07 10:12 51.16525 0.21362 9283 ft 286 kts 90°
2026-05-07 10:12 51.16536 0.24559 10040 ft 289 kts 89°
2026-05-07 10:13 51.16554 0.27786 10735 ft 293 kts 89°
2026-05-07 10:13 51.16571 0.31047 11418 ft 296 kts 89°
2026-05-07 10:13 51.16582 0.34348 12101 ft 300 kts 90°
2026-05-07 10:13 51.16590 0.37696 12787 ft 304 kts 90°
2026-05-07 10:14 51.16595 0.41144 13104 ft 321 kts 90°
2026-05-07 10:14 51.16598 0.44818 13241 ft 342 kts 90°